Location: Unspecified
(42.9300°N, 71.1866°W)
Time: 18:28:46
(UTC-04:00)

CZ-3 Stage 3 - Visible Passes

Search period start: 04 July 2015 00:00
Search period end: 14 July 2015 00:00
Orbit: 427 x 34799 km, 31.0° (Epoch: 01 July)

Date Brightness Start Highest point End Pass type
(mag) Time Alt. Az. Time Alt. Az. Time Alt. Az.
06 Jul 6.6 02:34:42 10° SSE 02:53:29 29° ESE 11:39:29 10° SE visible
09 Jul 6.5 02:28:52 10° SSE 02:47:28 31° ESE 11:34:15 10° SE visible
12 Jul 6.5 02:23:54 12° SSE 02:41:30 32° ESE 11:28:59 10° SE visible
